EW9996 Weather Reports


Display with metric or nautical units.
time (UTC)temp
F
wind
direction
speed
MPH
gust
MPH
rain 1hr
in
rain 24hr
in
rain mn
in
humidity
%
barometer
mb
20190422163049 63 358 2.0 5.0 0.00 0.00 0.00 55 1026.8
20190422161630 63 320 3.0 6.0 0.00 0.00 0.00 56 1027.1
20190422160057 61 215 2.0 6.0 0.00 0.00 0.00 57 1027.3
20190422154621 61 330 5.0 9.0 0.00 0.00 0.00 58 1027.5
20190422153113 60 1 3.0 8.0 0.00 0.00 0.00 59 1027.7
20190422151529 59 313 1.0 8.0 0.00 0.00 0.00 61 1027.9
20190422150041 59 248 4.0 8.0 0.00 0.00 0.00 62 1028.0
20190422144536 58 311 1.0 6.0 0.00 0.00 0.00 64 1028.0
20190422143013 57 333 2.0 7.0 0.00 0.00 0.00 65 1028.1
20190422141528 55 306 2.0 5.0 0.00 0.00 0.00 67 1028.2
20190422140032 54 46 2.0 5.0 0.00 0.00 0.00 69 1028.3
20190422134710 54 2 3.0 9.0 0.00 0.00 0.00 69 1028.3
20190422133216 53 6 3.0 8.0 0.00 0.00 0.00 72 1028.3
20190422131742 52 346 3.0 8.0 0.00 0.00 0.00 73 1028.4
20190422130111 51 340 1.0 4.0 0.00 0.00 0.00 77 1028.3
20190422124624 50 309 0.0 5.0 0.00 0.00 0.00 77 1028.2
20190422123112 50 282 0.0 3.0 0.00 0.00 0.00 78 1028.1
20190422121608 50 357 1.0 5.0 0.00 0.00 0.00 79 1028.2
20190422120240 49 282 0.0 3.0 0.00 0.00 0.00 80 1028.1
20190422114724 49 334 0.0 2.0 0.00 0.00 0.00 81 1028.1
20190422113103 49 45 1.0 3.0 0.00 0.00 0.00 80 1028.0
20190422111608 49 271 1.0 4.0 0.00 0.00 0.00 81 1027.6
20190422110108 49 284 0.0 3.0 0.00 0.00 0.00 80 1027.3
20190422104702 49 347 1.0 6.0 0.00 0.00 0.00 80 1026.9
20190422103057 49 330 1.0 5.0 0.00 0.00 0.00 80 1026.4
20190422101603 48 313 1.0 5.0 0.00 0.00 0.00 82 1026.3
20190422100112 48 302 0.0 1.0 0.00 0.00 0.00 84 1026.1
20190422094555 47 250 0.0 2.0 0.00 0.00 0.00 84 1026.1
20190422093032 47 295 1.0 4.0 0.00 0.00 0.00 85 1026.1
20190422090109 46 294 0.0 2.0 0.00 0.00 0.00 88 1026.2
20190422084600 45 65 0.0 0.0 0.00 0.00 0.00 90 1026.2
20190422083057 45 65 0.0 0.0 0.00 0.00 0.00 89 1026.2
20190422081614 45 65 0.0 2.0 0.00 0.00 0.00 90 1026.2
20190422080048 45 313 0.0 0.0 0.00 0.00 0.00 89 1026.2
20190422074538 45 310 0.0 0.0 0.00 0.00 0.00 88 1026.1
20190422073039 45 309 0.0 2.0 0.00 0.00 0.00 87 1026.0
20190422071531 46 314 0.0 0.0 0.00 0.00 0.00 86 1026.0
20190422070032 47 314 0.0 2.0 0.00 0.00 0.00 84 1026.0
20190422064519 47 294 0.0 4.0 0.00 0.00 0.00 83 1026.2
20190422063038 47 135 0.0 2.0 0.00 0.00 0.00 83 1026.4
20190422061535 48 297 0.0 2.0 0.00 0.00 0.00 84 1026.5
20190422060027 48 289 0.0 0.0 0.00 0.00 0.00 83 1026.6
20190422054530 48 277 0.0 1.0 0.00 0.00 0.00 83 1026.6
20190422053008 48 276 0.0 0.0 0.00 0.00 0.00 82 1026.7
20190422051518 48 257 0.0 0.0 0.00 0.00 0.00 81 1026.7
20190422050004 48 305 0.0 1.0 0.00 0.00 0.00 81 1026.5
20190422044505 48 313 0.0 3.0 0.00 0.00 0.00 81 1026.4
20190422043002 48 307 0.0 0.0 0.00 0.00 0.00 80 1026.4
20190422041501 48 307 0.0 0.0 0.00 0.00 0.00 79 1026.3
20190422040149 49 307 0.0 2.0 0.00 0.00 0.00 78 1026.0
20190422034659 49 303 0.0 3.0 0.00 0.00 0.00 77 1025.9
20190422033144 49 271 0.0 4.0 0.00 0.00 0.00 76 1025.9
20190422031733 49 127 0.0 2.0 0.00 0.00 0.00 76 1025.8
20190422030326 50 316 1.0 5.0 0.00 0.00 0.00 74 1025.9
20190422024646 50 283 3.0 13.0 0.00 0.00 0.00 73 1025.9
20190422023153 50 311 1.0 5.0 0.00 0.00 0.00 76 1025.9
20190422021705 50 299 0.0 6.0 0.00 0.00 0.00 77 1026.1
20190422020239 49 293 0.0 3.0 0.00 0.00 0.00 76 1026.1
20190422014633 49 269 0.0 2.0 0.00 0.00 0.00 76 1026.0
20190422013117 50 306 1.0 4.0 0.00 0.00 0.00 75 1025.9
20190422011624 50 294 0.0 4.0 0.00 0.00 0.00 74 1025.8
20190422010112 50 315 1.0 5.0 0.00 0.00 0.00 74 1025.5
20190422004633 50 348 1.0 6.0 0.00 0.00 0.00 72 1025.3
20190422003132 51 332 1.0 5.0 0.00 0.00 0.00 72 1025.2
20190422001607 51 343 2.0 5.0 0.00 0.00 0.00 71 1024.8
20190422000111 51 281 3.0 12.0 0.00 0.00 0.00 70 1024.6
20190421234631 52 360 4.0 10.0 0.00 0.00 0.00 69 1024.4
20190421233056 53 15 3.0 9.0 0.00 0.00 0.00 68 1024.1
20190421231631 54 328 5.0 10.0 0.00 0.00 0.00 67 1024.0
20190421230058 53 316 3.0 10.0 0.00 0.00 0.00 71 1023.9
20190421224631 53 342 3.0 11.0 0.00 0.00 0.00 71 1023.9
20190421223118 53 18 4.0 13.0 0.00 0.00 0.00 71 1023.7
20190421221633 53 352 2.0 13.0 0.00 0.00 0.00 70 1023.7
20190421220112 53 257 5.0 12.0 0.00 0.00 0.00 70 1023.6
20190421214551 54 286 3.0 8.0 0.00 0.00 0.00 69 1023.3
20190421213041 55 321 3.0 11.0 0.00 0.00 0.00 68 1023.0
20190421211547 55 334 5.0 10.0 0.00 0.00 0.00 66 1022.9
20190421210029 55 342 7.0 11.0 0.00 0.00 0.00 68 1022.7
20190421204538 56 305 2.0 13.0 0.00 0.00 0.00 66 1022.6
20190421203037 57 328 6.0 15.0 0.00 0.00 0.00 66 1022.4
20190421201541 57 307 5.0 14.0 0.00 0.00 0.00 65 1022.2
20190421200038 57 35 5.0 11.0 0.00 0.00 0.00 65 1021.9
20190421194538 57 350 4.0 8.0 0.00 0.00 0.00 68 1021.8
20190421193035 57 307 5.0 9.0 0.00 0.00 0.00 64 1021.7
20190421191536 58 316 3.0 8.0 0.00 0.00 0.00 63 1021.6
20190421190019 58 18 2.0 9.0 0.00 0.00 0.00 64 1021.4
20190421184525 58 16 2.0 9.0 0.00 0.00 0.00 65 1021.4
20190421183010 58 217 1.0 7.0 0.00 0.00 0.00 65 1021.2
20190421181517 57 299 1.0 6.0 0.00 0.00 0.00 71 1021.2
20190421180002 55 306 3.0 9.0 0.00 0.00 0.00 70 1021.3
20190421174500 55 342 5.0 12.0 0.00 0.00 0.00 71 1021.3
20190421173136 55 261 2.0 8.0 0.00 0.00 0.00 74 1021.3
20190421171706 55 172 2.0 5.0 0.00 0.00 0.00 75 1021.2
20190421170229 55 313 3.0 8.0 0.00 0.00 0.00 73 1021.0
20190421164629 54 288 2.0 9.0 0.00 0.00 0.00 73 1021.1